FW5768 Weather Reports


time (UTC)temp
C
wind
direction
speed
KPH
gust
KPH
rain 1hr
cm
rain 24hr
cm
rain mn
cm
humidity
%
barometer
mb
20260508193304 15 86 6.4 12.9 0.00 0.00 0.00 59 1011.5
20260508192805 15 150 6.4 11.3 0.00 0.00 0.00 59 1011.6
20260508192306 15 132 8.0 12.9 0.00 0.00 0.00 59 1011.5
20260508191805 15 97 4.8 12.9 0.00 0.00 0.00 59 1011.3
20260508191305 15 121 6.4 11.3 0.00 0.00 0.00 58 1011.3
20260508190804 16 141 6.4 11.3 0.00 0.00 0.00 58 1011.2
20260508190304 16 128 6.4 11.3 0.00 0.00 0.00 57 1011.3
20260508185804 16 143 6.4 12.9 0.00 0.00 0.00 57 1011.0
20260508185306 16 137 8.0 16.1 0.00 0.00 0.00 56 1011.1
20260508184805 16 97 8.0 14.5 0.00 0.00 0.00 57 1011.2
20260508184305 16 127 9.7 20.9 0.00 0.00 0.00 57 1011.2
20260508183805 16 144 8.0 16.1 0.00 0.00 0.00 56 1011.0
20260508183306 16 131 8.0 16.1 0.00 0.00 0.00 56 1011.1
20260508182805 17 139 8.0 16.1 0.00 0.00 0.00 55 1010.9
20260508181805 17 136 8.0 14.5 0.00 0.00 0.00 55 1010.7
20260508181305 17 113 8.0 16.1 0.00 0.00 0.00 54 1010.7
20260508180805 17 151 9.7 16.1 0.00 0.00 0.00 53 1010.5
20260508180306 17 135 9.7 16.1 0.00 0.00 0.00 53 1010.6
20260508175804 17 130 8.0 16.1 0.00 0.00 0.00 52 1010.5
20260508175306 17 136 8.0 19.3 0.00 0.00 0.00 52 1010.6
20260508174805 17 148 8.0 16.1 0.00 0.00 0.00 52 1010.9
20260508173805 17 152 8.0 14.5 0.00 0.00 0.00 53 1010.9
20260508173305 17 155 9.7 19.3 0.00 0.00 0.00 53 1010.9
20260508172807 18 134 8.0 16.1 0.00 0.00 0.00 53 1010.6
20260508172307 17 129 9.7 19.3 0.00 0.00 0.00 52 1010.9
20260508171804 17 171 8.0 16.1 0.00 0.00 0.00 54 1010.8
20260508171305 17 124 4.8 11.3 0.00 0.00 0.00 54 1010.9
20260508170804 17 115 8.0 16.1 0.00 0.00 0.00 54 1010.8
20260508170305 17 140 6.4 14.5 0.00 0.00 0.00 53 1010.9
20260508164804 17 137 6.4 16.1 0.00 0.00 0.00 54 1010.7
20260508163804 18 128 8.0 19.3 0.00 0.00 0.00 53 1010.6
20260508163304 17 147 11.3 19.3 0.00 0.00 0.00 53 1010.8
20260508162804 17 138 9.7 16.1 0.00 0.00 0.00 53 1010.7
20260508162306 18 151 9.7 19.3 0.00 0.00 0.00 52 1010.7
20260508161804 18 122 8.0 14.5 0.00 0.00 0.00 51 1010.7
20260508161304 18 133 8.0 19.3 0.00 0.00 0.00 50 1010.6
20260508160805 17 154 9.7 16.1 0.00 0.00 0.00 52 1010.6
20260508160305 18 177 9.7 19.3 0.00 0.00 0.00 52 1010.6
20260508155805 18 107 9.7 19.3 0.00 0.00 0.00 53 1010.7
20260508155306 17 111 12.9 32.2 0.00 0.00 0.00 53 1010.6
20260508154804 17 145 11.3 22.5 0.00 0.00 0.00 53 1010.7
20260508154304 17 131 9.7 19.3 0.00 0.00 0.00 54 1010.8
20260508153805 17 110 11.3 20.9 0.00 0.00 0.00 54 1010.9
20260508153304 17 129 11.3 20.9 0.00 0.00 0.00 54 1010.7
20260508152804 18 121 9.7 20.9 0.00 0.00 0.00 51 1010.8
20260508152306 18 152 12.9 20.9 0.00 0.00 0.00 51 1010.5
20260508151805 18 126 9.7 19.3 0.00 0.00 0.00 53 1010.7
20260508151305 17 160 8.0 16.1 0.00 0.00 0.00 53 1010.7
20260508150804 17 142 9.7 16.1 0.00 0.00 0.00 53 1010.8
20260508150304 17 141 6.4 14.5 0.00 0.00 0.00 53 1010.9
20260508145804 18 115 12.9 20.9 0.00 0.00 0.00 52 1010.9
20260508144804 19 144 14.5 25.7 0.00 0.00 0.00 51 1011.0
20260508144305 18 152 8.0 16.1 0.00 0.00 0.00 52 1010.9
20260508143805 18 167 9.7 25.7 0.00 0.00 0.00 51 1011.1
20260508143304 18 133 9.7 19.3 0.00 0.00 0.00 52 1011.0
20260508142806 18 122 8.0 16.1 0.00 0.00 0.00 51 1011.1
20260508142306 18 140 8.0 20.9 0.00 0.00 0.00 52 1011.1
20260508141804 17 106 8.0 19.3 0.00 0.00 0.00 52 1011.3
20260508141304 18 161 11.3 20.9 0.00 0.00 0.00 51 1011.1
20260508140804 18 148 8.0 24.1 0.00 0.00 0.00 51 1011.2
20260508140304 18 155 11.3 27.4 0.00 0.00 0.00 52 1011.3
20260508135306 18 148 8.0 20.9 0.00 0.00 0.00 52 1011.4
20260508134804 17 138 11.3 20.9 0.00 0.00 0.00 52 1011.5
20260508133806 17 141 9.7 19.3 0.00 0.00 0.00 54 1011.7
20260508133305 17 130 11.3 20.9 0.00 0.00 0.00 54 1011.8
20260508131804 17 139 14.5 24.1 0.00 0.03 0.00 54 1012.0
20260508131304 17 146 12.9 25.7 0.00 0.03 0.00 55 1011.8
20260508130305 17 138 12.9 24.1 0.00 0.05 0.00 55 1012.0
20260508125805 17 141 9.7 22.5 0.00 0.05 0.00 55 1012.0
20260508125306 17 151 11.3 22.5 0.00 0.05 0.00 57 1012.1
20260508124804 17 124 11.3 20.9 0.00 0.05 0.00 56 1012.1
20260508124305 17 148 9.7 25.7 0.00 0.05 0.00 57 1012.2
20260508123804 17 144 11.3 22.5 0.00 0.05 0.00 56 1012.1
20260508123304 17 108 9.7 20.9 0.00 0.05 0.00 55 1012.3
20260508122804 17 137 9.7 19.3 0.00 0.08 0.00 55 1012.4
20260508122307 17 128 9.7 22.5 0.00 0.10 0.00 58 1012.5
20260508121804 17 152 11.3 22.5 0.00 0.13 0.00 56 1012.1
20260508121303 17 156 12.9 24.1 0.00 0.15 0.00 58 1012.3
20260508120804 17 126 14.5 24.1 0.00 0.20 0.00 57 1012.4
20260508120304 17 100 11.3 19.3 0.00 0.25 0.00 56 1012.4
20260508115805 17 138 8.0 16.1 0.00 0.30 0.00 59 1012.5
20260508115306 17 82 9.7 22.5 0.00 0.33 0.00 58 1012.8
20260508114805 16 141 8.0 16.1 0.00 0.33 0.00 60 1012.8
20260508114304 16 133 11.3 24.1 0.00 0.33 0.00 62 1013.2
20260508113805 16 174 11.3 24.1 0.00 0.33 0.00 60 1013.0
20260508113304 16 113 8.0 22.5 0.00 0.33 0.00 62 1013.2
20260508112804 16 100 9.7 22.5 0.00 0.33 0.00 61 1013.2
20260508112307 16 138 9.7 27.4 0.00 0.33 0.00 64 1013.4
20260508111804 16 119 11.3 20.9 0.00 0.33 0.00 63 1013.5
20260508110804 15 152 14.5 25.7 0.00 0.33 0.00 64 1013.8
20260508110304 15 149 11.3 20.9 0.00 0.33 0.00 65 1013.6
20260508105804 15 151 9.7 20.9 0.00 0.33 0.00 63 1013.8
20260508105306 16 136 11.3 20.9 0.00 0.36 0.00 62 1013.7
20260508104803 16 150 9.7 24.1 0.00 0.36 0.00 64 1013.7
20260508104303 16 138 9.7 20.9 0.00 0.38 0.00 63 1013.6
20260508103804 16 119 11.3 20.9 0.00 0.38 0.00 64 1013.6
20260508103304 15 140 8.0 19.3 0.00 0.38 0.00 64 1013.8
20260508102804 15 142 14.5 25.7 0.00 0.38 0.00 65 1013.7
20260508102306 15 142 11.3 20.9 0.00 0.38 0.00 65 1013.8
20260508101803 15 158 9.7 19.3 0.00 0.38 0.00 64 1013.7
20260508101304 15 182 11.3 19.3 0.00 0.38 0.00 66 1013.8
20260508100304 15 144 11.3 20.9 0.00 0.38 0.00 64 1014.0
20260508095803 14 102 8.0 14.5 0.00 0.38 0.00 69 1013.9
20260508095306 14 135 9.7 19.3 0.00 0.38 0.00 68 1014.0
20260508094804 14 138 11.3 20.9 0.00 0.38 0.00 70 1013.9
20260508094304 13 124 9.7 24.1 0.00 0.38 0.00 73 1014.0
20260508093804 13 128 9.7 14.5 0.00 0.38 0.00 72 1014.0
20260508093304 13 148 11.3 24.1 0.00 0.38 0.00 73 1014.0
20260508092312 13 122 11.3 20.9 0.00 0.38 0.00 74 1013.9
20260508091803 13 138 11.3 22.5 0.00 0.38 0.00 74 1013.8
20260508091303 13 169 11.3 24.1 0.00 0.38 0.00 75 1013.6
20260508090803 13 128 9.7 16.1 0.00 0.38 0.00 75 1013.5
20260508090304 13 138 9.7 20.9 0.00 0.38 0.00 77 1013.6
20260508084803 12 145 8.0 14.5 0.00 0.38 0.00 79 1013.4
20260508084304 12 115 9.7 19.3 0.00 0.38 0.00 78 1013.2
20260508083804 12 119 9.7 16.1 0.00 0.38 0.00 79 1013.4
20260508083304 11 132 8.0 19.3 0.00 0.38 0.00 82 1013.2
20260508082306 11 140 11.3 16.1 0.00 0.38 0.00 85 1013.5
20260508081303 10 115 6.4 14.5 0.00 0.38 0.00 88 1013.6
20260508080804 10 117 4.8 14.5 0.00 0.38 0.00 89 1013.4
20260508080304 10 124 6.4 14.5 0.00 0.38 0.00 89 1013.3
20260508075803 10 134 6.4 12.9 0.00 0.38 0.00 89 1013.8
20260508075308 10 119 4.8 11.3 0.00 0.38 0.00 90 1013.7
20260508074804 10 128 8.0 12.9 0.00 0.38 0.00 90 1013.8
20260508073304 10 116 4.8 12.9 0.00 0.38 0.00 90 1013.6
20260508072803 10 117 4.8 11.3 0.00 0.38 0.00 91 1013.6
20260508072307 9 44 3.2 14.5 0.00 0.38 0.00 92 1013.7
20260508071803 9 108 3.2 14.5 0.00 0.38 0.00 92 1013.6
20260508071303 8 130 4.8 12.9 0.00 0.38 0.00 93 1013.5
20260508070804 8 113 4.8 11.3 0.00 0.38 0.00 93 1013.4
20260508065803 8 79 3.2 11.3 0.00 0.38 0.00 93 1013.1
20260508065306 8 78 4.8 14.5 0.00 0.38 0.00 93 1013.4
20260508063803 8 64 4.8 9.7 0.00 0.38 0.00 94 1013.7
20260508063303 8 67 4.8 9.7 0.00 0.38 0.00 94 1013.6
20260508062805 8 59 3.2 4.8 0.00 0.38 0.00 94 1013.6
20260508062306 8 68 3.2 8.0 0.00 0.38 0.00 94 1013.6
20260508061804 8 70 3.2 8.0 0.00 0.38 0.00 94 1013.8
20260508061304 8 63 3.2 8.0 0.00 0.38 0.00 94 1013.5
20260508060303 8 32 1.6 4.8 0.00 0.38 0.00 95 1013.3
20260508055804 8 41 3.2 8.0 0.00 0.38 0.00 95 1013.3
20260508055306 8 25 1.6 9.7 0.00 0.38 0.00 95 1013.2
20260508054804 8 18 4.8 8.0 0.00 0.38 0.00 95 1013.1
20260508054303 8 27 1.6 3.2 0.00 0.38 0.00 95 1013.2
20260508053804 8 32 1.6 1.6 0.00 0.38 0.00 95 1013.3
20260508052306 7 41 0.0 1.6 0.00 0.38 0.00 95 1013.3
20260508051804 7 72 0.0 3.2 0.00 0.38 0.00 95 1013.3
20260508050804 7 264 1.6 4.8 0.00 0.38 0.00 95 1013.1
20260508050304 7 294 1.6 4.8 0.00 0.38 0.00 95 1013.2
20260508045803 8 337 3.2 8.0 0.00 0.38 0.00 94 1012.9
20260508044803 8 68 3.2 9.7 0.00 0.38 0.00 94 1012.6
20260508044304 8 71 4.8 12.9 0.00 0.38 0.00 94 1012.7
20260508043803 8 113 3.2 12.9 0.00 0.38 0.00 94 1012.3
20260508043303 7 36 4.8 12.9 0.00 0.38 0.00 94 1012.2
20260508042803 7 104 6.4 19.3 0.00 0.38 0.00 94 1012.2
20260508042306 7 98 4.8 14.5 0.00 0.38 0.00 94 1012.3
20260508041804 7 110 6.4 14.5 0.00 0.38 0.00 94 1012.2
20260508041304 7 92 4.8 12.9 0.00 0.38 0.00 94 1012.4
20260508040803 7 124 8.0 14.5 0.00 0.38 0.00 94 1012.6
20260508035803 7 78 8.0 14.5 0.00 0.38 0.00 93 1012.3
20260508035306 7 100 6.4 14.5 0.00 0.38 0.00 93 1012.4
20260508034304 7 134 8.0 14.5 0.00 0.38 0.00 92 1012.5
20260508033804 7 125 4.8 12.9 0.00 0.38 0.00 92 1012.5
20260508033304 7 133 4.8 12.9 0.00 0.38 0.00 92 1012.3
20260508032804 7 82 4.8 14.5 0.00 0.38 0.00 92 1012.3
20260508031804 7 119 4.8 12.9 0.00 0.38 0.00 92 1012.1
20260508031304 7 108 8.0 14.5 0.00 0.38 0.00 91 1012.1
20260508030304 7 114 8.0 14.5 0.00 0.38 0.00 90 1012.1
20260508025804 7 117 6.4 12.9 0.00 0.38 0.00 91 1012.1
20260508025306 7 82 4.8 12.9 0.00 0.38 0.00 90 1012.1
20260508024804 7 132 6.4 14.5 0.00 0.38 0.00 90 1012.2
20260508024304 7 103 8.0 12.9 0.00 0.38 0.00 90 1012.1
20260508023804 7 152 8.0 14.5 0.00 0.38 0.00 90 1012.3
20260508023304 7 96 4.8 12.9 0.00 0.38 0.00 90 1012.1
20260508022804 7 63 4.8 16.1 0.00 0.38 0.00 90 1012.4
20260508022307 7 81 4.8 11.3 0.00 0.38 0.00 90 1012.3
20260508021803 7 89 3.2 9.7 0.00 0.38 0.00 90 1012.6
20260508021304 7 73 4.8 9.7 0.00 0.38 0.00 90 1012.6
20260508020804 7 115 3.2 8.0 0.00 0.38 0.00 90 1012.7
20260508015803 7 99 3.2 8.0 0.00 0.38 0.00 90 1013.5
20260508015306 7 166 1.6 3.2 0.00 0.38 0.00 90 1013.8
20260508014804 7 257 1.6 4.8 0.00 0.38 0.00 89 1013.6
20260508014303 8 108 1.6 9.7 0.00 0.38 0.00 89 1013.7
20260508013804 8 120 3.2 11.3 0.00 0.38 0.00 89 1013.8
20260508013304 7 112 3.2 11.3 0.00 0.38 0.00 90 1013.7
20260508012307 7 51 1.6 4.8 0.00 0.38 0.00 90 1013.8
20260508011803 7 66 1.6 4.8 0.00 0.38 0.00 90 1013.8
20260508011304 7 18 1.6 4.8 0.00 0.38 0.00 90 1013.9
20260508010804 7 359 1.6 4.8 0.00 0.38 0.00 90 1013.9
20260508010304 7 25 1.6 4.8 0.00 0.38 0.00 89 1014.0
20260508005803 7 7 1.6 4.8 0.00 0.38 0.00 89 1014.0
20260508005306 7 9 4.8 8.0 0.00 0.38 0.00 90 1014.3
20260508004804 7 349 4.8 8.0 0.00 0.38 0.00 90 1014.3
20260508004304 7 337 4.8 11.3 0.00 0.38 0.00 91 1014.2
20260508003804 7 1 3.2 8.0 0.00 0.38 0.00 91 1014.5
20260508003303 7 323 3.2 4.8 0.00 0.38 0.00 91 1014.6
20260508002803 7 4 4.8 8.0 0.00 0.38 0.00 91 1014.4
20260508001304 7 354 1.6 3.2 0.00 0.38 0.00 91 1015.0
20260508000804 7 10 1.6 4.8 0.00 0.38 0.00 91 1015.1
20260508000305 7 28 1.6 3.2 0.00 0.38 0.00 91 1014.8
20260507235804 7 40 1.6 3.2 0.00 0.38 0.00 91 1015.0
20260507235307 7 27 1.6 3.2 0.00 0.38 0.00 91 1014.9
20260507234803 7 38 1.6 3.2 0.00 0.38 0.00 92 1014.8
20260507234304 7 120 1.6 4.8 0.00 0.38 0.00 92 1015.1
20260507233304 7 329 0.0 1.6 0.00 0.38 0.00 92 1014.5
20260507232803 7 359 1.6 3.2 0.00 0.38 0.00 92 1014.5
20260507232306 7 12 1.6 3.2 0.00 0.38 0.00 92 1014.5
20260507231804 7 357 3.2 4.8 0.00 0.38 0.00 91 1014.5
20260507231303 7 11 3.2 8.0 0.00 0.38 0.00 92 1014.4
20260507230804 7 9 3.2 9.7 0.00 0.38 0.00 92 1014.6
20260507225804 7 20 3.2 9.7 0.00 0.38 0.00 92 1014.8
20260507224804 7 9 1.6 3.2 0.00 0.38 0.00 92 1014.8
20260507224304 7 8 1.6 3.2 0.00 0.38 0.00 91 1014.9
20260507223804 7 19 1.6 4.8 0.00 0.38 0.00 91 1015.0
20260507223304 7 45 1.6 3.2 0.00 0.38 0.00 91 1014.8
20260507222306 7 44 3.2 8.0 0.00 0.38 0.00 91 1014.7
20260507221804 7 59 3.2 8.0 0.00 0.38 0.00 91 1014.6
20260507221304 7 50 4.8 8.0 0.00 0.38 0.00 91 1014.7
20260507220804 7 43 3.2 8.0 0.00 0.38 0.00 92 1014.7
20260507220304 7 50 3.2 4.8 0.00 0.38 0.00 92 1014.8
20260507215803 7 15 3.2 4.8 0.00 0.38 0.38 92 1014.8
20260507215306 7 35 3.2 8.0 0.00 0.38 0.38 92 1014.6
20260507214804 7 35 3.2 8.0 0.00 0.38 0.38 91 1014.6
20260507214304 7 47 3.2 4.8 0.00 0.38 0.38 92 1014.8
20260507213804 7 8 1.6 4.8 0.00 0.38 0.38 92 1014.8
20260507213304 7 4 1.6 4.8 0.00 0.38 0.38 91 1014.7
20260507212804 8 343 3.2 4.8 0.00 0.38 0.38 91 1014.4
20260507212306 8 0 1.6 3.2 0.00 0.38 0.38 91 1014.2
20260507211803 8 27 1.6 3.2 0.00 0.38 0.38 91 1014.3
20260507211303 8 351 0.0 1.6 0.00 0.38 0.38 91 1014.5
20260507210804 8 352 0.0 3.2 0.00 0.38 0.38 90 1014.5
20260507210304 8 40 1.6 3.2 0.00 0.38 0.38 90 1014.4
20260507205803 8 30 1.6 4.8 0.00 0.38 0.38 90 1014.5
20260507203804 8 51 0.0 0.0 0.00 0.38 0.38 88 1013.9
20260507203304 8 334 0.0 1.6 0.00 0.38 0.38 88 1014.0
20260507202804 8 59 1.6 3.2 0.00 0.38 0.38 87 1014.0
20260507201803 9 56 1.6 3.2 0.00 0.38 0.38 86 1013.8
20260507200803 9 72 1.6 3.2 0.00 0.38 0.38 86 1013.7
20260507195804 9 171 0.0 3.2 0.00 0.38 0.38 86 1013.4
20260507194804 10 126 1.6 1.6 0.00 0.38 0.38 85 1013.1
20260507193804 10 161 0.0 1.6 0.00 0.38 0.38 84 1013.0